Simultaneous Nadir Overpasses (SNOs) Predictions

Prediction of SNOs between GOES-16 and NOAA-20 Satellite Orbit:

Table of predicted SNOs for the next 14.0 days since TLE Epoch: 7/15/2024
Index Date Time (GOES-16) GOES-16 Lat,Lon NOAA-20 Lat,Lon Distance(km) Time Diff (sec)
1 07/16/2024 06:38:06 0.05, -75.20 0.65, -77.98 315.97 80
2 07/17/2024 06:16:41 0.04, -75.20 -0.35, -73.45 199.77 80
3 07/18/2024 18:41:19 -0.04, -75.20 -0.83, -78.76 406.49 80
4 07/19/2024 18:19:54 -0.03, -75.20 0.17, -74.23 109.42 80
5 07/21/2024 06:44:23 0.03, -75.21 0.98, -79.51 490.56 80
6 07/22/2024 06:22:58 0.03, -75.21 -0.03, -74.98 25.70 80
7 07/24/2024 18:28:51 -0.03, -75.22 -0.13, -75.77 62.65 80
8 07/25/2024 18:07:26 -0.03, -75.22 0.88, -71.24 454.48 80
9 07/27/2024 06:31:54 0.03, -75.25 0.32, -76.51 143.85 80
10 07/28/2024 06:10:29 0.03, -75.26 -0.70, -71.98 373.36 80
